Showing default

KSM1-A, 46912

Orbit data source: Space-Track

KSM1-A, 46912 is a payload satellite owned by Kleos Space (LU) in LEO that was launched on Sat, 07 Nov 2020 UTC via a PSLV-DL launch vehicle from the Sirharikota (SRI). Payload-class satellites include a variety of spacecraft equipped with specific instruments for various scientific and technological missions. These include communications satellites like Starlink; space stations such as the ISS; scientific satellites like the Hubble; Earth observation satellites from companies like Planet Labs, Umbra, and HawkEye 360; GPS; miniature CubeSats for education and research; and military/defense satellites.

Loading next visibility...
Identifier
46912, 2020-081H
Orbit
LEO
Country
Flag of LULU / LUXE
Related business
Manufacturer
GOMSpace
Mission
Operational Commercial Sigint
Bus & Motor
CUBESAT 6U, Unknown motor
Mass
~10 kg wet, ~10 kg dry
Launch date (UTC)
2020-11-07 (5 years ago)
Launch vehicle
PSLV-DL
Launch site
Sirharikota (SRI)
Object type
Payload
Rocket body
Debris
Shape & HBR
Box, 1.0 m
Radar Cross Section
0.080 m², Medium (>0.1 m² and < 1m²)

Expand to show TLE details & history
Last TLE update: 7 hours ago

TLE from 7 hours ago
0 KSM1-A
1 46912U 20081H   26127.78294640  .00006556  00000-0  25757-3 0  9992
2 46912  36.8971 310.3440 0003563 329.2720  30.7820 15.25353433303005
Epoch: 2026-05-07T18:47Z
TLE epoch observation values (Epoch: 2026-05-07T18:47:26.568Z)
Latitude
-0.00003°
Longitude
162.85912°
Altitude
486.73 km
Speed
7.625 km/s
True Right ascension
20h 41m 22s
True Declination
0° 00' 00"
Sunlit
Object was in daylight at epoch
Visualization orbit readout
Latitude
Unknown
Longitude
Unknown
Altitude
Unknown
Speed
Unknown
Apparent Right ascension
Unknown
Apparent Declination
Unknown
Sunlit
N/A
Visualization observer readout
Local Sidereal Time
10:05:49
Azimuth
Unknown
Elevation
Unknown
Doppler factor
Unknown
Orbital elements
Apogee altitude
495.123 km
Perigee altitude
490.227 km
Semi-major axis
6,870.812 km
Eccentricity
0.00036
Inclination
36.8971°
RAAN
310.344°
Arg. of periapsis
329.272°
True anomaly
30.8029°
Mean anomaly
30.782°
Eccentric anomaly
30.79245°
Mean motion
3.81093 °/min
Orbital period
94.47 mins
BSTAR
0.00025757
Loading maneuver chart data...
Computing Atmospheric mass density...
Loading historical data...
Loading historical data...
Loading historical data...
Loading historical data...
Loading historical data...
Loading historical data...
Loading historical data...

Documentation

Showing up to 5 results
|